Location: Bathurst
(33.4193°S, 149.5775°E)
Time: 22:01:10
(UTC+10:00)

SR - Visible Passes

Search period start: 13 June 2021 00:00
Search period end: 23 June 2021 00:00
Orbit: 574 x 880 km, 66.7° (Epoch: 13 June)

Date Brightness Start Highest point End Pass type
(mag) Time Alt. Az. Time Alt. Az. Time Alt. Az.
13 Jun ? 04:51:13 10° NNE 04:54:11 18° ENE 04:57:08 10° ESE visible
13 Jun ? 06:32:12 10° WNW 06:35:55 29° WSW 06:39:40 10° S visible
14 Jun ? 05:41:49 10° NNW 05:46:03 73° WSW 05:50:19 10° SSE visible
15 Jun ? 04:52:20 10° N 04:56:21 42° ENE 05:00:22 10° SE visible
15 Jun ? 06:36:12 10° W 06:38:33 14° SW 06:40:54 10° SSW visible
16 Jun ? 04:07:34 16° E 04:07:34 16° E 04:09:32 10° ESE visible
16 Jun ? 05:47:10 26° W 05:48:29 32° WSW 05:52:20 10° S visible
17 Jun ? 05:00:49 28° SSE 05:00:49 28° SSE 05:02:55 10° SSE visible
18 Jun ? 05:53:09 12° SSW 05:53:09 12° SSW 05:53:43 10° SSW visible
